Simultaneous Nadir Overpasses (SNOs) Predictions

Prediction of SNOs between AQUA and METOP-C Satellite Orbit:

Table of predicted SNOs for the next 14.0 days since TLE Epoch: 12/2/2023
Index Date (AQUA) Time (AQUA) Lat,Lon (AQUA) SZA (AQUA ) Date (METOP-C) Time (METOP-C) Lat,Lon (METOP-C) SZA (METOP-C ) Distance(km) Time Diff (sec)
1 12/02/2023 19:01:23 74.87,-108.39 96.79 12/02/2023 19:00:34 74.90,-108.38 96.82 3.29 49
2 12/02/2023 19:50:47 -74.93, 59.11 83.16 12/02/2023 19:51:15 -74.94, 59.06 83.14 1.92 28
3 12/05/2023 12:03:13 -74.89, 176.15 82.83 12/05/2023 12:02:55 -74.90, 176.05 82.81 3.41 18
4 12/05/2023 12:52:39 74.99, -16.47 97.28 12/05/2023 12:53:33 74.99, -16.37 97.29 3.09 54
5 12/08/2023 04:15:37 -74.88, -66.88 82.53 12/08/2023 04:14:34 -74.90, -66.88 82.51 2.27 63
6 12/08/2023 05:05:02 74.94, 100.61 97.54 12/08/2023 05:05:13 74.94, 100.58 97.55 1.20 11
7 12/08/2023 05:54:37 -75.54, -93.39 81.85 12/08/2023 05:55:42 -75.54, -90.32 81.85 85.40 65
8 12/10/2023 21:17:22 74.91,-142.37 97.77 12/10/2023 21:16:51 74.92,-142.38 97.79 1.60 31
9 12/10/2023 22:06:46 -74.96, 25.15 82.18 12/10/2023 22:07:31 -75.00, 25.15 82.14 3.98 45
10 12/13/2023 13:29:41 74.91, -25.41 97.98 12/13/2023 13:28:30 74.88, -25.40 97.96 3.03 71
11 12/13/2023 14:19:05 -74.96, 142.11 81.97 12/13/2023 14:19:10 -74.95, 142.13 81.97 0.91 5



Historial Predications of SNOs between AQUA and METOP-C
